Location: Gisborne
(38.6530°S, 178.0040°E)
Time: 17:35:22
(UTC+13:00)

Cosmos 1242 Rocket - Pass Details

Date: 24 January 2019
Orbit: 450 x 487 km, 81.2° (Epoch: 23 October)

Event Time Altitude Azimuth Distance (km) Brightness Sun altitude
Rises 21:16:51 0° 171° (S) 2,605 6.6 -8.9°
Reaches altitude 10° 21:19:36 10° 150° (SSE) 1,714 5.4 -9.3°
Maximum altitude 21:22:05 17° 108° (ESE) 1,337 4.4 -9.7°
Enters shadow 21:23:53 13° 75° (ENE) 1,537 4.5 -10.0°
